LRSM Weather Reports


Display with metric or nautical units.
time (UTC)temp
F
wind
direction
speed
MPH
gust
MPH
rain 1hr
in
rain 24hr
in
rain mn
in
humidity
%
barometer
mb
20260503211833 52 220 6.0 0.0 0.00 0.00 0.00 58 1018.0
20260503210332 52 220 6.0 0.0 0.00 0.00 0.00 58 1018.0
20260503204839 54 210 7.0 0.0 0.00 0.00 0.00 54 1018.0
20260503203451 54 210 7.0 0.0 0.00 0.00 0.00 54 1018.0
20260503201832 54 200 7.0 0.0 0.00 0.00 0.00 54 1018.0
20260503200342 54 200 7.0 0.0 0.00 0.00 0.00 54 1018.0
20260503194858 54 210 6.0 0.0 0.00 0.00 0.00 54 1018.0
20260503193452 54 210 6.0 0.0 0.00 0.00 0.00 54 1018.0
20260503191832 55 230 5.0 0.0 0.00 0.00 0.00 51 1018.0
20260503190332 55 230 5.0 0.0 0.00 0.00 0.00 51 1018.0
20260503184950 61 230 6.0 0.0 0.00 0.00 0.00 42 1018.0
20260503183332 61 230 6.0 0.0 0.00 0.00 0.00 42 1018.0
20260503181832 59 250 6.0 0.0 0.00 0.00 0.00 45 1018.0
20260503180332 59 250 6.0 0.0 0.00 0.00 0.00 45 1018.0
20260503174852 63 250 5.0 0.0 0.00 0.00 0.00 39 1018.0
20260503173357 63 250 5.0 0.0 0.00 0.00 0.00 39 1018.0
20260503171832 68 260 6.0 0.0 0.00 0.00 0.00 33 1018.0
20260503170333 68 260 6.0 0.0 0.00 0.00 0.00 33 1018.0
20260503150332 70 280 6.0 0.0 0.00 0.00 0.00 27 1018.0
20260503130333 70 260 6.0 0.0 0.00 0.00 0.00 27 1020.0
20260503110353 66 5.0 0.0 0.00 0.00 0.00 30 1021.0
20260503090353 63 240 6.0 0.0 0.00 0.00 0.00 34 1023.0
20260503080343 61 180 5.0 0.0 0.00 0.00 0.00 34 1023.0
20260503071831 59 160 6.0 0.0 0.00 0.00 0.00 36 1023.0
20260503070333 59 160 6.0 0.0 0.00 0.00 0.00 36 1023.0
20260503060332 55 130 8.0 0.0 0.00 0.00 0.00 44 1023.0
20260503054832 54 120 7.0 0.0 0.00 0.00 0.00 47 1023.0
20260503053332 54 120 7.0 0.0 0.00 0.00 0.00 47 1023.0
20260503051832 50 110 7.0 0.0 0.00 0.00 0.00 54 1023.0
20260503050332 50 110 7.0 0.0 0.00 0.00 0.00 54 1023.0
20260503044832 46 110 7.0 0.0 0.00 0.00 0.00 62 1023.0
20260503043333 46 110 7.0 0.0 0.00 0.00 0.00 62 1023.0
20260503041832 43 110 6.0 0.0 0.00 0.00 0.00 71 1023.0
20260503040355 43 110 6.0 0.0 0.00 0.00 0.00 71 1023.0
20260503034834 41 110 6.0 0.0 0.00 0.00 0.00 70 1022.0
20260503033332 41 110 6.0 0.0 0.00 0.00 0.00 70 1022.0
20260503031832 41 110 7.0 0.0 0.00 0.00 0.00 70 1022.0
20260503030332 41 110 7.0 0.0 0.00 0.00 0.00 70 1022.0
20260503024847 39 100 7.0 0.0 0.00 0.00 0.00 70 1022.0
20260503023333 39 100 7.0 0.0 0.00 0.00 0.00 70 1022.0
20260503021832 41 80 8.0 0.0 0.00 0.00 0.00 66 1022.0
20260503020332 41 80 8.0 0.0 0.00 0.00 0.00 66 1022.0
20260503014832 46 130 6.0 0.0 0.00 0.00 0.00 53 1022.0
20260503013332 46 130 6.0 0.0 0.00 0.00 0.00 53 1022.0
20260503011832 39 120 6.0 0.0 0.00 0.00 0.00 65 1022.0
20260503010332 39 120 6.0 0.0 0.00 0.00 0.00 65 1022.0
20260503004832 39 50 3.0 0.0 0.00 0.00 0.00 65 1022.0
20260503003332 39 50 3.0 0.0 0.00 0.00 0.00 65 1022.0
20260503001832 41 90 3.0 0.0 0.00 0.00 0.00 66 1022.0
20260503000332 41 90 3.0 0.0 0.00 0.00 0.00 66 1022.0
20260502234832 43 100 6.0 0.0 0.00 0.00 0.00 57 1022.0
20260502233332 43 100 6.0 0.0 0.00 0.00 0.00 57 1022.0
20260502231832 45 110 6.0 0.0 0.00 0.00 0.00 57 1022.0
20260502230333 45 110 6.0 0.0 0.00 0.00 0.00 57 1022.0
20260502224832 43 70 3.0 0.0 0.00 0.00 0.00 61 1022.0
20260502223332 43 70 3.0 0.0 0.00 0.00 0.00 61 1022.0
20260502221832 45 2.0 0.0 0.00 0.00 0.00 57 1022.0
20260502220332 45 2.0 0.0 0.00 0.00 0.00 57 1022.0
20260502214832 48 120 3.0 0.0 0.00 0.00 0.00 54 1022.0
20260502213333 48 120 3.0 0.0 0.00 0.00 0.00 54 1022.0